Weather History for Valdosta Regional, GA

Change the Weather History Date:

Wednesday, October 5, 2011

  Actual Average Record
Temperature  
Mean Temperature 69 °F 72 °F  
Max Temperature 87 °F 83 °F 91 °F (2000)
Min Temperature 51 °F 61 °F 44 °F (2014)
Degree Days  
Heating Degree Days 0 0  
Month to date heating degree days 0  
Since 1 July heating degree days 1  
Cooling Degree Days 4 7  
Month to date cooling degree days 39  
Year to date cooling degree days 2264  
Growing Degree Days 19 (Base 50)    
Moisture  
Dew Point 52 °F    
Average Humidity 59    
Maximum Humidity 83    
Minimum Humidity 31    
Precipitation  
Precipitation 0.00 in 0.11 in 0.21 in (2012)
Month to date precipitation 0.53  
Year to date precipitation 42.20  
Sea Level Pressure  
Sea Level Pressure 30.19 in    
Wind  
Wind Speed 2 mph (ENE)    
Max Wind Speed 10 mph    
Max Gust Speed -    
Visibility 10 miles    
Events      
T = Trace of Precipitation, MM = Missing Value Source: NWS Daily Summary

Daily Weather History Graph

Daily Weather History Graph

Search for Another Location

Airport:

Trip Planner

Search our weather history database for the weather conditions in past years. The results will help you decide how hot, cold, wet, or windy it might be!

Date:

Astronomy

Oct. 05, 2011 Rise Set
Actual Time 7:28 AM EDT 7:13 PM EDT
Civil Twilight 7:04 AM EDT 7:37 PM EDT
Nautical Twilight 6:36 AM EDT 8:05 PM EDT
Astronomical Twilight 6:08 AM EDT 8:33 PM EDT
Moon 3:31 PM EDT (10/5) 1:38 AM EDT (10/5)
Length of Visible Light 12h 32m
Length of Day
11h 44m
Waxing Gibbous, 66% of the Moon is Illuminated
Oct 5
Waxing Gibbous
Oct 11
Full
Oct 19
Last Quarter
Oct 26
New
Nov 2
First Quarter

Hourly Weather History & Observations

Time (EDT) Temp. Heat Index Dew Point Humidity Pressure Visibility Wind Dir Wind Speed Gust Speed Precip Events Conditions
12:53 AM 55.9 °F - 48.0 °F 75% 30.21 in 10.0 mi Calm Calm - N/A   Clear
1:53 AM 54.0 °F - 46.9 °F 77% 30.21 in 10.0 mi Calm Calm - N/A   Clear
2:53 AM 53.6 °F - 48.2 °F 82% 30.17 in 10.0 mi Calm Calm - N/A   Clear
3:53 AM 53.6 °F - 48.2 °F 82% 30.16 in 10.0 mi Calm Calm - N/A   Clear
4:53 AM 52.0 °F - 46.9 °F 83% 30.19 in 10.0 mi Calm Calm - N/A   Clear
5:53 AM 51.1 °F - 46.0 °F 83% 30.20 in 9.0 mi Calm Calm - N/A   Clear
6:53 AM 51.8 °F - 46.4 °F 82% 30.20 in 6.0 mi Calm Calm - N/A   Haze
7:53 AM 52.0 °F - 46.9 °F 83% 30.23 in 6.0 mi Calm Calm - N/A   Haze
8:53 AM 63.0 °F - 54.0 °F 72% 30.24 in 9.0 mi ENE 3.5 mph - N/A   Clear
9:53 AM 73.0 °F - 54.0 °F 51% 30.25 in 10.0 mi ENE 6.9 mph - N/A   Clear
10:53 AM 78.8 °F - 53.6 °F 42% 30.23 in 10.0 mi ENE 8.1 mph - N/A   Clear
11:53 AM 80.1 °F 80.0 °F 54.0 °F 40% 30.24 in 10.0 mi ENE 8.1 mph - N/A   Partly Cloudy
12:53 PM 82.0 °F 81.2 °F 53.1 °F 37% 30.22 in 10.0 mi Calm Calm - N/A   Partly Cloudy
1:53 PM 84.0 °F 82.6 °F 54.0 °F 35% 30.19 in 10.0 mi ENE 10.4 mph - N/A   Partly Cloudy
2:53 PM 84.9 °F 83.2 °F 53.1 °F 33% 30.17 in 10.0 mi Variable 4.6 mph - N/A   Clear
3:53 PM 87.1 °F 84.9 °F 53.1 °F 31% 30.15 in 10.0 mi NE 10.4 mph - N/A   Partly Cloudy
4:53 PM 84.0 °F 82.5 °F 53.1 °F 34% 30.14 in 10.0 mi ENE 8.1 mph - N/A   Partly Cloudy
5:53 PM 82.9 °F 81.9 °F 54.0 °F 37% 30.14 in 10.0 mi ENE 8.1 mph - N/A   Scattered Clouds
6:53 PM 80.6 °F 80.3 °F 53.6 °F 39% 30.12 in 10.0 mi East 3.5 mph - N/A   Clear
7:53 PM 75.0 °F - 55.0 °F 50% 30.15 in 10.0 mi NE 3.5 mph - N/A   Clear
8:53 PM 73.0 °F - 55.9 °F 55% 30.17 in 10.0 mi East 3.5 mph - N/A   Clear
9:53 PM 69.8 °F - 55.4 °F 60% 30.16 in 10.0 mi SE 4.6 mph - N/A   Clear
10:53 PM 68.0 °F - 57.0 °F 68% 30.18 in 10.0 mi ESE 3.5 mph - N/A   Clear
11:53 PM 62.1 °F - 54.0 °F 75% 30.19 in 10.0 mi Calm Calm - N/A   Clear